DLH6CR EDDF-EDXW

Flight info

Callsign DLH6CR
Flight time 0h 53m
Altitude 34000
Route TOBAK2D/07C TOBAK DCT OHMAR N850 LARBU/N0437F360 N850 NIE DCT OLDIP
Aircraft A319/M-SDE3FGHIRWY/LB1

Departure

Time 2026-05-07 19:35
Airport Frankfurt Main Airport (EDDF)

Arrival

Time 2026-05-07 20:28
Airport Westerland Sylt Airport (EDXW)
Time Latitude Longitude Altitude Speed Heading
2026-05-07 18:57 50.04685 8.56708 357 ft 0 kts 116°
2026-05-07 19:22 50.04695 8.56676 364 ft 4 kts 114°
2026-05-07 19:22 50.04705 8.56639 365 ft 2 kts 114°
2026-05-07 19:23 50.04716 8.56612 369 ft 4 kts 162°
2026-05-07 19:23 50.04736 8.56618 363 ft 4 kts 228°
2026-05-07 19:23 50.04751 8.56648 363 ft 4 kts 220°
2026-05-07 19:23 50.04770 8.56667 363 ft 2 kts 205°
2026-05-07 19:24 50.04784 8.56676 363 ft 0 kts 205°
2026-05-07 19:26 50.04782 8.56675 363 ft 0 kts 205°
2026-05-07 19:26 50.04775 8.56670 363 ft 2 kts 205°
2026-05-07 19:27 50.04754 8.56652 363 ft 4 kts 216°
2026-05-07 19:27 50.04748 8.56640 363 ft 0 kts 229°
2026-05-07 19:27 50.04743 8.56632 363 ft 3 kts 230°
2026-05-07 19:28 50.04723 8.56591 364 ft 7 kts 232°
2026-05-07 19:28 50.04676 8.56532 363 ft 11 kts 205°
2026-05-07 19:28 50.04597 8.56474 367 ft 14 kts 205°
2026-05-07 19:28 50.04512 8.56373 367 ft 17 kts 248°
2026-05-07 19:29 50.04467 8.56177 366 ft 21 kts 250°
2026-05-07 19:29 50.04376 8.56040 369 ft 14 kts 154°
2026-05-07 19:29 50.04300 8.56099 366 ft 12 kts 130°
2026-05-07 19:29 50.04246 8.56202 363 ft 15 kts 159°
2026-05-07 19:30 50.04135 8.56262 365 ft 18 kts 174°
2026-05-07 19:30 50.04103 8.56180 363 ft 7 kts 255°
2026-05-07 19:30 50.04081 8.56089 365 ft 11 kts 249°
2026-05-07 19:30 50.04050 8.55960 364 ft 15 kts 250°
2026-05-07 19:31 50.04010 8.55791 367 ft 19 kts 250°
2026-05-07 19:31 50.03960 8.55584 364 ft 22 kts 249°
2026-05-07 19:31 50.03904 8.55347 364 ft 24 kts 250°
2026-05-07 19:31 50.03846 8.55107 365 ft 24 kts 250°
2026-05-07 19:32 50.03789 8.54868 364 ft 23 kts 249°
2026-05-07 19:32 50.03733 8.54632 365 ft 23 kts 250°
2026-05-07 19:32 50.03678 8.54402 369 ft 19 kts 249°
2026-05-07 19:32 50.03592 8.54319 362 ft 17 kts 160°
2026-05-07 19:33 50.03519 8.54361 363 ft 13 kts 159°
2026-05-07 19:33 50.03490 8.54419 357 ft 0 kts 69°
2026-05-07 19:33 50.03490 8.54420 356 ft 0 kts 66°
2026-05-07 19:34 50.03534 8.54598 357 ft 53 kts 69°
2026-05-07 19:34 50.03751 8.55505 360 ft 123 kts 70°
2026-05-07 19:34 50.04111 8.57001 499 ft 159 kts 70°
2026-05-07 19:35 50.04477 8.58603 1212 ft 156 kts 70°
2026-05-07 19:35 50.04824 8.60207 1812 ft 165 kts 70°
2026-05-07 19:35 50.05204 8.62003 2288 ft 182 kts 70°
2026-05-07 19:35 50.05644 8.63974 2648 ft 204 kts 69°
2026-05-07 19:36 50.06147 8.66168 3113 ft 224 kts 69°
2026-05-07 19:36 50.06673 8.68467 3995 ft 227 kts 69°
2026-05-07 19:36 50.07425 8.70642 4857 ft 231 kts 46°
2026-05-07 19:36 50.08761 8.72135 5419 ft 249 kts 22°
2026-05-07 19:37 50.10420 8.73223 6072 ft 265 kts 21°
2026-05-07 19:37 50.12141 8.74362 6937 ft 272 kts 21°
2026-05-07 19:37 50.13897 8.75536 7831 ft 277 kts 22°
2026-05-07 19:37 50.15676 8.76735 8741 ft 281 kts 22°
2026-05-07 19:38 50.17482 8.77961 9653 ft 285 kts 22°
2026-05-07 19:38 50.19323 8.79213 10368 ft 297 kts 22°
2026-05-07 19:38 50.21292 8.80548 10756 ft 317 kts 22°
2026-05-07 19:38 50.23342 8.81937 11456 ft 325 kts 22°
2026-05-07 19:39 50.25433 8.83335 12236 ft 329 kts 19°
2026-05-07 19:39 50.27660 8.84242 13008 ft 333 kts
2026-05-07 19:39 50.29979 8.84363 13791 ft 335 kts 353°
2026-05-07 19:39 50.32300 8.83890 14500 ft 339 kts 351°
2026-05-07 19:40 50.34619 8.83386 15186 ft 343 kts 351°
2026-05-07 19:40 50.36992 8.82873 15891 ft 346 kts 351°
2026-05-07 19:40 50.39390 8.82361 16592 ft 349 kts 351°
2026-05-07 19:40 50.41809 8.81847 17289 ft 353 kts 351°
2026-05-07 19:41 50.44259 8.81328 17989 ft 356 kts 351°
2026-05-07 19:41 50.46734 8.80804 18643 ft 360 kts 351°
2026-05-07 19:41 50.49225 8.80274 19246 ft 363 kts 351°
2026-05-07 19:41 50.51739 8.79736 19853 ft 366 kts 351°
2026-05-07 19:42 50.54270 8.79196 20457 ft 369 kts 351°
2026-05-07 19:42 50.56856 8.78949 21061 ft 374 kts
2026-05-07 19:42 50.59426 8.79451 21646 ft 380 kts 11°
2026-05-07 19:42 50.62005 8.80463 22240 ft 383 kts 12°
2026-05-07 19:43 50.64600 8.81485 22830 ft 387 kts 12°
2026-05-07 19:43 50.67225 8.82512 23410 ft 390 kts 12°
2026-05-07 19:43 50.69877 8.83548 23945 ft 394 kts 12°
2026-05-07 19:43 50.72547 8.84590 24452 ft 396 kts 12°
2026-05-07 19:44 50.75233 8.85641 24966 ft 399 kts 12°
2026-05-07 19:44 50.77933 8.86701 25459 ft 401 kts 12°
2026-05-07 19:44 50.80651 8.87775 25947 ft 403 kts 12°
2026-05-07 19:44 50.83348 8.88835 26424 ft 405 kts 12°
2026-05-07 19:45 50.86105 8.89824 26897 ft 407 kts 11°
2026-05-07 19:45 50.88887 8.90739 27357 ft 409 kts
2026-05-07 19:45 50.91690 8.91621 27830 ft 411 kts
2026-05-07 19:45 50.94510 8.92498 28279 ft 414 kts
2026-05-07 19:46 50.97342 8.93386 28728 ft 416 kts
2026-05-07 19:46 51.00184 8.94297 29178 ft 418 kts 10°
2026-05-07 19:46 51.03049 8.95238 29612 ft 421 kts 10°
2026-05-07 19:46 51.05925 8.96195 30043 ft 423 kts 10°
2026-05-07 19:47 51.08821 8.97135 30420 ft 426 kts
2026-05-07 19:47 51.11739 8.98010 30768 ft 428 kts
2026-05-07 19:47 51.14674 8.98905 31101 ft 431 kts
2026-05-07 19:47 51.17589 8.99842 31436 ft 433 kts 10°
2026-05-07 19:48 51.20548 9.00833 31783 ft 435 kts 11°
2026-05-07 19:48 51.23500 9.01848 32262 ft 434 kts 11°
2026-05-07 19:48 51.26446 9.02869 32712 ft 433 kts 11°
2026-05-07 19:48 51.29391 9.03887 33160 ft 433 kts 11°
2026-05-07 19:49 51.32342 9.04767 33603 ft 431 kts
2026-05-07 19:49 51.35331 9.04723 34008 ft 430 kts 355°
2026-05-07 19:49 51.41216 9.04179 34113 ft 411 kts 355°
2026-05-07 19:50 51.46821 9.03616 34114 ft 400 kts 355°
2026-05-07 19:50 51.52373 9.03052 34111 ft 399 kts 355°
2026-05-07 19:51 51.57917 9.02504 34113 ft 399 kts 355°
2026-05-07 19:51 51.63462 9.01953 34113 ft 399 kts 355°
2026-05-07 19:52 51.69004 9.01406 34111 ft 399 kts 355°
2026-05-07 19:52 51.74508 9.00859 34115 ft 399 kts 355°
2026-05-07 19:53 51.80053 9.00313 34111 ft 399 kts 355°
2026-05-07 19:53 51.85603 8.99762 34110 ft 399 kts 355°
2026-05-07 19:54 51.91154 8.99202 34107 ft 399 kts 355°
2026-05-07 19:54 51.96699 8.98639 34106 ft 399 kts 355°
2026-05-07 19:55 52.02248 8.98089 34107 ft 399 kts 355°
2026-05-07 19:55 52.07799 8.97528 34105 ft 399 kts 355°
2026-05-07 19:56 52.13351 8.96965 34101 ft 400 kts 355°
2026-05-07 19:56 52.18902 8.96412 34115 ft 400 kts 355°
2026-05-07 19:57 52.24455 8.95856 34101 ft 400 kts 355°
2026-05-07 19:57 52.30012 8.95283 34100 ft 400 kts 355°
2026-05-07 19:58 52.35567 8.94713 34096 ft 400 kts 355°
2026-05-07 19:58 52.41094 8.94148 34093 ft 401 kts 355°
2026-05-07 19:59 52.46676 8.93578 34096 ft 402 kts 355°
2026-05-07 19:59 52.52264 8.93014 34096 ft 403 kts 355°
2026-05-07 20:00 52.57861 8.92444 34095 ft 403 kts 355°
2026-05-07 20:00 52.63459 8.91871 34099 ft 403 kts 355°
2026-05-07 20:01 52.69063 8.91289 34102 ft 403 kts 355°
2026-05-07 20:01 52.74676 8.90700 34104 ft 404 kts 355°
2026-05-07 20:02 52.80290 8.90117 34108 ft 404 kts 355°
2026-05-07 20:02 52.85911 8.89528 34115 ft 405 kts 355°
2026-05-07 20:03 52.91497 8.88944 34120 ft 405 kts 355°
2026-05-07 20:03 52.94330 8.88650 33975 ft 413 kts 355°
2026-05-07 20:03 52.97214 8.88349 33700 ft 416 kts 355°
2026-05-07 20:04 53.00100 8.88043 33421 ft 415 kts 355°
2026-05-07 20:04 53.02970 8.87739 33013 ft 410 kts 355°
2026-05-07 20:04 53.05807 8.87437 32526 ft 407 kts 355°
2026-05-07 20:04 53.08619 8.87138 32058 ft 403 kts 355°
2026-05-07 20:05 53.11408 8.86847 31599 ft 400 kts 355°
2026-05-07 20:05 53.14180 8.86558 31145 ft 397 kts 355°
2026-05-07 20:05 53.16928 8.86268 30701 ft 395 kts 355°
2026-05-07 20:05 53.19665 8.85976 30261 ft 392 kts 355°
2026-05-07 20:06 53.22382 8.85686 29781 ft 389 kts 355°
2026-05-07 20:06 53.25068 8.85400 29363 ft 385 kts 355°
2026-05-07 20:06 53.27727 8.85121 28958 ft 381 kts 355°
2026-05-07 20:06 53.30359 8.84843 28553 ft 378 kts 355°
2026-05-07 20:07 53.32973 8.84562 28143 ft 374 kts 355°
2026-05-07 20:07 53.35563 8.84283 27743 ft 371 kts 355°
2026-05-07 20:07 53.38126 8.84007 27343 ft 367 kts 355°
2026-05-07 20:07 53.40664 8.83736 26932 ft 364 kts 355°
2026-05-07 20:08 53.43187 8.83472 26525 ft 361 kts 355°
2026-05-07 20:08 53.45690 8.83206 26102 ft 359 kts 355°
2026-05-07 20:08 53.48145 8.82942 25688 ft 356 kts 355°
2026-05-07 20:08 53.50608 8.82674 25267 ft 354 kts 355°
2026-05-07 20:09 53.53061 8.82408 24834 ft 352 kts 355°
2026-05-07 20:09 53.55504 8.82144 24405 ft 350 kts 355°
2026-05-07 20:09 53.57940 8.81881 24134 ft 353 kts 355°
2026-05-07 20:10 53.62873 8.81351 24111 ft 357 kts 355°
2026-05-07 20:10 53.65349 8.81087 24113 ft 357 kts 355°
2026-05-07 20:10 53.67827 8.80819 24114 ft 357 kts 356°
2026-05-07 20:10 53.70305 8.80547 24112 ft 356 kts 356°
2026-05-07 20:11 53.72782 8.80274 24111 ft 356 kts 356°
2026-05-07 20:11 53.75254 8.80004 24112 ft 356 kts 356°
2026-05-07 20:11 53.77726 8.79734 24111 ft 356 kts 356°
2026-05-07 20:11 53.80172 8.79469 24111 ft 356 kts 356°
2026-05-07 20:12 53.82647 8.79202 24111 ft 356 kts 356°
2026-05-07 20:12 53.85120 8.78938 24112 ft 356 kts 356°
2026-05-07 20:12 53.87586 8.78674 23398 ft 358 kts 356°
2026-05-07 20:12 53.90111 8.78395 22221 ft 366 kts 356°
2026-05-07 20:13 53.92649 8.78108 21371 ft 365 kts 356°
2026-05-07 20:13 53.95170 8.77822 20624 ft 361 kts 356°
2026-05-07 20:13 53.96858 8.77633 20132 ft 358 kts 355°
2026-05-07 20:13 53.99302 8.77362 19353 ft 355 kts 355°
2026-05-07 20:14 54.01846 8.77087 18034 ft 368 kts 355°
2026-05-07 20:14 54.04408 8.76811 16595 ft 379 kts 356°
2026-05-07 20:14 54.07115 8.76515 15107 ft 390 kts 356°
2026-05-07 20:14 54.09858 8.76210 13635 ft 399 kts 355°
2026-05-07 20:15 54.12617 8.75905 12726 ft 391 kts 356°
2026-05-07 20:15 54.15271 8.75610 12473 ft 375 kts 356°
2026-05-07 20:15 54.17823 8.75327 12211 ft 361 kts 356°
2026-05-07 20:15 54.20284 8.75050 11956 ft 349 kts 356°
2026-05-07 20:16 54.22641 8.74783 11700 ft 338 kts 356°
2026-05-07 20:16 54.24954 8.74524 11451 ft 328 kts 356°
2026-05-07 20:16 54.27203 8.74275 11198 ft 320 kts 356°
2026-05-07 20:16 54.29396 8.74030 10950 ft 312 kts 356°
2026-05-07 20:17 54.31539 8.73790 10701 ft 305 kts 356°
2026-05-07 20:17 54.33634 8.73555 10461 ft 298 kts 356°
2026-05-07 20:17 54.35682 8.73327 10218 ft 292 kts 356°
2026-05-07 20:17 54.37704 8.73102 10024 ft 289 kts 356°
2026-05-07 20:18 54.39698 8.72876 9777 ft 285 kts 356°
2026-05-07 20:18 54.41666 8.72652 9422 ft 282 kts 356°
2026-05-07 20:18 54.43619 8.72432 9042 ft 280 kts 356°
2026-05-07 20:18 54.45556 8.72216 8671 ft 278 kts 357°
2026-05-07 20:19 54.47480 8.72002 8287 ft 276 kts 357°
2026-05-07 20:19 54.49388 8.71784 7908 ft 274 kts 358°
2026-05-07 20:19 54.51283 8.71565 7518 ft 272 kts 357°
2026-05-07 20:19 54.53166 8.71347 7121 ft 271 kts 358°
2026-05-07 20:20 54.55044 8.71131 6729 ft 270 kts 358°
2026-05-07 20:20 54.56887 8.70925 6322 ft 268 kts 358°
2026-05-07 20:20 54.58768 8.70717 5896 ft 266 kts 358°
2026-05-07 20:20 54.60605 8.70459 5505 ft 265 kts 352°
2026-05-07 20:21 54.62293 8.69514 5408 ft 253 kts 335°
2026-05-07 20:21 54.63751 8.67933 5244 ft 243 kts 326°
2026-05-07 20:21 54.65102 8.66279 5112 ft 232 kts 326°
2026-05-07 20:21 54.66395 8.64698 5006 ft 225 kts 325°
2026-05-07 20:22 54.67650 8.63166 4907 ft 217 kts 325°
2026-05-07 20:22 54.68882 8.61661 4812 ft 218 kts 325°
2026-05-07 20:22 54.70121 8.60147 4716 ft 218 kts 325°
2026-05-07 20:22 54.71362 8.58629 4619 ft 219 kts 324°
2026-05-07 20:23 54.72606 8.57107 4363 ft 219 kts 324°
2026-05-07 20:23 54.73850 8.55582 4071 ft 219 kts 324°
2026-05-07 20:23 54.75094 8.54057 3775 ft 219 kts 324°
2026-05-07 20:23 54.76344 8.52523 3482 ft 220 kts 324°
2026-05-07 20:24 54.77596 8.50985 3177 ft 221 kts 324°
2026-05-07 20:24 54.78845 8.49450 2863 ft 218 kts 325°
2026-05-07 20:24 54.80062 8.47954 2576 ft 211 kts 325°
2026-05-07 20:24 54.81223 8.46524 2295 ft 200 kts 325°
2026-05-07 20:25 54.82324 8.45168 2059 ft 190 kts 325°
2026-05-07 20:25 54.83381 8.43865 1774 ft 181 kts 326°
2026-05-07 20:25 54.84350 8.42669 1539 ft 161 kts 326°
2026-05-07 20:25 54.85210 8.41608 1340 ft 147 kts 326°
2026-05-07 20:26 54.86024 8.40602 1143 ft 141 kts 327°
2026-05-07 20:26 54.86810 8.39632 953 ft 137 kts 327°
2026-05-07 20:26 54.87577 8.38684 767 ft 133 kts 327°
2026-05-07 20:26 54.88326 8.37762 585 ft 131 kts 326°
2026-05-07 20:27 54.89059 8.36856 403 ft 129 kts 327°
2026-05-07 20:27 54.89788 8.35948 213 ft 129 kts 327°
2026-05-07 20:27 54.90514 8.35049 50 ft 128 kts 326°
2026-05-07 20:27 54.91140 8.34274 37 ft 90 kts 324°
2026-05-07 20:28 54.91509 8.33816 35 ft 40 kts 324°
2026-05-07 20:28 54.91660 8.33626 36 ft 24 kts 324°
2026-05-07 20:28 54.91794 8.33460 36 ft 24 kts 325°
2026-05-07 20:28 54.91890 8.33274 35 ft 15 kts 248°
2026-05-07 20:29 54.91816 8.33194 35 ft 0 kts 199°
2026-05-07 20:29 54.91811 8.33192 34 ft 2 kts 199°
2026-05-07 20:29 54.91778 8.33179 35 ft 8 kts 186°
2026-05-07 20:30 54.91705 8.33177 35 ft 13 kts 180°
2026-05-07 20:30 54.91593 8.33178 34 ft 18 kts 180°
2026-05-07 20:30 54.91468 8.33190 29 ft 16 kts 160°
2026-05-07 20:30 54.91392 8.33227 29 ft 9 kts 222°
2026-05-07 20:31 54.91385 8.33130 29 ft 3 kts 269°
2026-05-07 20:31 54.91385 8.33116 29 ft 0 kts 269°